Location: D�nning
(49.2479°N, 12.8491°E)
Time: 04:59:17
(UTC+00:00)

COSMOS 2406 - Pass Details

Date: 18 September 2020
Orbit: 844 x 863 km, 71.0° (Epoch: 22 October)

Event Time Altitude Azimuth Distance (km) Brightness Sun altitude
Rises 19:02:54 0° 334° (NNW) 3,416 7.2 -17.9°
Reaches altitude 10° 19:05:38 10° 345° (NNW) 2,477 6.2 -18.3°
Maximum altitude 19:10:41 32° 47° (NE) 1,425 4.2 -19.1°
Enters shadow 19:12:19 27° 78° (ENE) 1,567 4.2 -19.3°
